DW6030 Kaukapakapa NZ current weather conditions

sailwx.info

Wind from 027 at 1 knots gusting 6

Air temperature 14.4° C
Dewpoint 14.3° C

Last reported at 2020-May-27 01:10 UTC.
Time now 2020-May-27 01:40 UTC

Location: S 36°31' E 174°28'.
View on Google Maps.

See reports from other nearby stations

  
Tides and Currents Weather Stations Pressure Air Temp Water Temp Dewpoint Dewpoint Depression Visibility Wind Speed Wind Dir Waves Ship Positions
date/time (UTC)wind fromknots sea level pressurealtimeterstation pressurevisibilityair tempwater tempwave heightnotes
2020-May-27 01:10 027 1 gusting 6 14.4
2020-May-27 01:05 043 3 gusting 6 14.4
2020-May-27 01:00 028 1 gusting 4 13.9
2020-May-27 00:55 027 1 gusting 6 13.9
2020-May-27 00:50 026 1 gusting 4 13.9
2020-May-27 00:45 033 1 gusting 4 13.9
2020-May-27 00:40 023 1 gusting 4 13.9
2020-May-27 00:35 033 1 gusting 4 13.9
2020-May-27 00:30 029 1 gusting 2 13.9
2020-May-27 00:25 024 0 gusting 6 13.9
2020-May-27 00:20 023 0 gusting 2 13.9
2020-May-27 00:15 023 0 gusting 6 13.9
2020-May-27 00:10 031 0 gusting 2 13.9
2020-May-27 00:05 029 0 gusting 2 13.9
2020-May-27 00:00 024 0 gusting 2 13.9
2020-May-26 23:55 023 0 gusting 4 13.9
2020-May-26 23:50 026 0 gusting 2 13.9
2020-May-26 23:45 027 1 gusting 2 13.9
2020-May-26 23:40 027 0 gusting 4 13.9
2020-May-26 23:35 030 1 gusting 4 13.9
2020-May-26 23:30 038 0 gusting 4 13.9
2020-May-26 23:25 031 0 gusting 6 13.9
2020-May-26 23:20 013 1 gusting 6 13.9
2020-May-26 23:15 012 1 gusting 6 13.9
2020-May-26 23:10 028 1 gusting 6 13.9
2020-May-26 23:05 037 1 gusting 6 13.9
2020-May-26 23:00 029 1 gusting 6 13.9
2020-May-26 22:55 046 2 gusting 6 13.9
2020-May-26 22:50 033 3 gusting 10 13.9
2020-May-26 22:45 029 2 gusting 6 13.9
2020-May-26 22:40 025 1 gusting 6 13.9
2020-May-26 22:35 028 1 gusting 6 13.9
2020-May-26 22:30 028 0 gusting 10 13.9
2020-May-26 22:25 027 1 gusting 10 13.9
2020-May-26 22:20 021 1 gusting 5 13.9
2020-May-26 22:15 032 1 gusting 6 13.9
2020-May-26 22:10 024 1 gusting 10 13.9
2020-May-26 22:05 025 2 gusting 6 13.9
2020-May-26 22:00 033 2 gusting 6 13.9
2020-May-26 21:55 033 1 gusting 6 13.9
2020-May-26 21:50 025 1 gusting 6 13.9
2020-May-26 21:45 021 1 gusting 6 13.9
2020-May-26 21:40 029 1 gusting 6 13.9
2020-May-26 21:35 039 1 gusting 4 13.9
2020-May-26 21:30 033 1 gusting 6 13.9
2020-May-26 21:25 027 1 gusting 7 13.9
2020-May-26 21:20 026 1 gusting 6 13.9
2020-May-26 21:15 027 1 gusting 7 13.9
2020-May-26 21:10 029 3 gusting 13 13.9
2020-May-26 21:05 028 2 gusting 6 13.9
2020-May-26 21:00 033 2 gusting 6 13.9
2020-May-26 20:55 030 3 gusting 10 13.9
2020-May-26 20:50 023 1 gusting 8 13.9
2020-May-26 20:45 026 1 gusting 6 13.9
2020-May-26 20:40 049 2 gusting 13 13.9
2020-May-26 20:35 074 3 gusting 14 13.9
2020-May-26 20:30 027 1 gusting 6 13.9
2020-May-26 20:25 030 1 gusting 4 13.9
2020-May-26 20:20 029 1 gusting 4 13.9
2020-May-26 20:15 030 1 gusting 4 13.9
2020-May-26 20:10 040 2 gusting 8 13.9
2020-May-26 20:05 041 2 gusting 8 13.9
2020-May-26 20:00 028 4 gusting 13 13.9
2020-May-26 19:55 032 3 gusting 10 13.9
2020-May-26 19:50 028 3 gusting 14 13.9
2020-May-26 19:45 031 4 gusting 10 13.9
2020-May-26 19:40 029 2 gusting 10 13.9
2020-May-26 19:35 032 4 gusting 7 13.9
2020-May-26 19:30 025 2 gusting 10 13.9
2020-May-26 19:25 028 3 gusting 8 13.9
2020-May-26 19:20 029 1 gusting 7 13.9
2020-May-26 19:15 034 2 gusting 8 13.9
2020-May-26 19:10 023 2 gusting 6 13.9
2020-May-26 19:00 026 4 gusting 13 13.9
2020-May-26 18:55 033 2 gusting 7 13.9
2020-May-26 18:50 022 1 gusting 6 13.9
2020-May-26 18:45 034 1 gusting 12 13.9
2020-May-26 18:40 028 2 gusting 7 13.9
2020-May-26 18:35 030 2 gusting 6 13.9
2020-May-26 18:30 042 2 gusting 7 13.9
2020-May-26 18:25 024 2 gusting 6 13.9
2020-May-26 18:20 027 2 gusting 7 13.9
2020-May-26 18:15 034 2 gusting 6 13.9
2020-May-26 18:10 026 2 gusting 7 13.9
2020-May-26 18:05 031 1 gusting 7 13.9
2020-May-26 18:00 032 3 gusting 7 13.9
2020-May-26 17:55 027 2 gusting 7 14.4
2020-May-26 17:30 032 2 gusting 6 14.4
2020-May-26 17:25 027 2 gusting 7 14.4
2020-May-26 17:20 032 2 gusting 14 14.4
2020-May-26 17:15 031 3 gusting 7 14.4
2020-May-26 17:10 031 2 gusting 10 14.4
2020-May-26 17:05 036 2 gusting 6 14.4
2020-May-26 17:00 024 1 gusting 7 14.4
2020-May-26 16:55 035 3 gusting 8 14.4
2020-May-26 16:50 034 2 gusting 8 14.4
2020-May-26 16:45 033 1 gusting 8 14.4
2020-May-26 16:40 027 2 gusting 10 14.4
2020-May-26 16:35 043 2 gusting 13 14.4
2020-May-26 16:30 039 4 gusting 10 14.4
2020-May-26 16:25 038 2 gusting 10 14.4
2020-May-26 16:20 028 0 gusting 2 14.4
2020-May-26 16:15 026 0 gusting 4 14.4
2020-May-26 16:10 056 0 gusting 4 14.4
2020-May-26 16:05 023 1 gusting 6 14.4
2020-May-26 16:00 034 0 gusting 2 14.4
2020-May-26 15:55 017 0 gusting 6 14.4
2020-May-26 15:50 026 1 gusting 4 14.4
2020-May-26 15:45 027 1 gusting 8 14.4
2020-May-26 15:40 030 1 gusting 4 14.4
2020-May-26 15:35 026 1 gusting 10 14.4
2020-May-26 15:30 048 2 gusting 7 14.4
2020-May-26 15:25 030 2 gusting 10 14.4
2020-May-26 15:20 044 1 gusting 6 15.0
2020-May-26 15:15 028 2 gusting 7 15.0
2020-May-26 15:10 034 2 gusting 7 15.0
2020-May-26 15:05 029 1 gusting 7 15.0
2020-May-26 15:00 029 1 gusting 6 15.0
2020-May-26 14:55 026 1 gusting 7 15.0
2020-May-26 14:50 029 0 gusting 4 15.0
2020-May-26 14:45 033 0 gusting 4 15.0
2020-May-26 14:40 036 1 gusting 4 15.0
2020-May-26 14:35 015 2 gusting 12 15.6
2020-May-26 14:30 024 2 gusting 11 15.6
2020-May-26 14:25 030 2 gusting 6 15.6
2020-May-26 14:20 030 0 gusting 1 15.6
2020-May-26 14:15 029 1 gusting 6 15.6
2020-May-26 14:10 028 1 gusting 2 15.6
2020-May-26 14:05 028 15.6
2020-May-26 14:00 028 0 gusting 4 15.6
2020-May-26 13:55 028 15.6
2020-May-26 13:50 028 0 gusting 4 15.6
2020-May-26 13:45 037 1 gusting 2 15.6
2020-May-26 13:40 037 0 gusting 1 15.6
2020-May-26 13:35 036 0 gusting 1 15.6
2020-May-26 13:30 037 15.6
2020-May-26 13:25 037 15.6
2020-May-26 13:20 037 15.6
2020-May-26 13:15 037 15.6
2020-May-26 13:10 036 15.6
2020-May-26 13:05 037 15.6
2020-May-26 13:00 037 0 gusting 2 15.6
2020-May-26 12:55 037 1 gusting 5 15.6
2020-May-26 12:50 032 1 gusting 2 15.6
2020-May-26 12:45 032 0 gusting 2 15.6
2020-May-26 12:40 032 0 gusting 2 15.6
2020-May-26 12:35 032 0 gusting 2 15.6
2020-May-26 12:30 032 0 gusting 2 15.6
2020-May-26 12:25 032 0 gusting 1 15.6
2020-May-26 12:20 032 15.6
2020-May-26 12:15 032 0 gusting 1 15.6
2020-May-26 12:10 032 0 gusting 2 15.6
2020-May-26 12:05 032 0 gusting 2 15.6
2020-May-26 12:00 032 0 gusting 2 15.6
2020-May-26 11:55 032 0 gusting 2 15.6
2020-May-26 11:50 032 0 gusting 2 15.6
2020-May-26 11:45 032 1 gusting 5 15.6
2020-May-26 11:40 029 2 gusting 5 15.6
2020-May-26 11:35 031 2 gusting 4 15.6
2020-May-26 11:30 029 2 gusting 7 15.6
2020-May-26 11:25 027 0 gusting 2 15.6
2020-May-26 11:20 027 15.6
2020-May-26 11:15 027 15.6
2020-May-26 11:10 027 15.6
2020-May-26 11:05 027 15.6
2020-May-26 11:00 027 0 gusting 2 15.6
2020-May-26 10:55 027 15.6
2020-May-26 10:50 027 15.6
2020-May-26 10:45 027 1 gusting 4 15.6
2020-May-26 10:40 027 1 gusting 4 15.6
2020-May-26 10:35 026 0 gusting 6 15.6
2020-May-26 10:30 026 2 gusting 6 15.6
2020-May-26 10:25 020 0 gusting 2 15.6
2020-May-26 10:20 019 1 gusting 6 15.6
2020-May-26 10:15 019 0 gusting 2 15.6
2020-May-26 10:10 019 0 gusting 2 15.6
2020-May-26 10:05 019 0 gusting 2 15.6
2020-May-26 10:00 019 0 gusting 2 15.6
2020-May-26 09:55 019 0 gusting 2 15.6
2020-May-26 09:50 023 0 gusting 6 15.6
2020-May-26 09:45 028 15.6
2020-May-26 09:40 028 15.6
2020-May-26 09:35 028 1 gusting 7 15.6
2020-May-26 09:30 029 1 gusting 4 15.6
2020-May-26 09:25 028 4 gusting 10 15.6
2020-May-26 09:20 028 2 gusting 6 15.6
2020-May-26 09:15 029 2 gusting 6 15.6
2020-May-26 09:10 032 2 gusting 4 15.6
2020-May-26 09:05 031 2 gusting 10 15.6
2020-May-26 09:00 025 2 gusting 6 15.6
2020-May-26 08:55 031 2 gusting 6 15.6
2020-May-26 08:50 046 2 gusting 6 15.6
2020-May-26 08:45 029 1 gusting 2 15.6
2020-May-26 08:40 029 1 gusting 6 15.6
2020-May-26 08:35 029 2 gusting 6 15.6
2020-May-26 08:30 029 2 gusting 6 15.6
2020-May-26 08:25 025 0 gusting 2 15.6
2020-May-26 08:20 025 0 gusting 2 15.6
2020-May-26 08:15 033 1 gusting 5 15.6
2020-May-26 08:10 026 0 gusting 2 15.6
2020-May-26 08:05 026 0 gusting 2 15.6
2020-May-26 08:00 025 1 gusting 2 15.6
2020-May-26 07:55 023 1 gusting 2 15.6
2020-May-26 07:50 021 1 gusting 4 15.6
2020-May-26 07:45 016 1 gusting 2 15.6
2020-May-26 07:40 015 1 gusting 6 15.6
2020-May-26 07:35 029 1 gusting 6 15.6
2020-May-26 07:30 028 1 gusting 6 15.6
2020-May-26 07:25 029 1 gusting 4 15.6
2020-May-26 07:20 029 1 gusting 4 15.6
2020-May-26 07:15 036 2 gusting 7 15.6
2020-May-26 07:10 023 1 gusting 4 15.6
2020-May-26 07:05 024 0 gusting 6 16.1
2020-May-26 07:00 028 1 gusting 4 16.1
2020-May-26 06:55 030 1 gusting 2 16.1
2020-May-26 06:50 030 1 gusting 4 16.1
2020-May-26 06:45 027 1 gusting 2 16.1
2020-May-26 06:40 027 1 gusting 2 16.1
2020-May-26 06:35 029 1 gusting 6 16.1
2020-May-26 06:30 026 1 gusting 4 16.1
2020-May-26 06:25 031 1 gusting 4 16.1
2020-May-26 06:20 032 0 gusting 2 16.1
2020-May-26 06:15 032 0 gusting 2 16.1
2020-May-26 06:10 032 16.1
2020-May-26 06:05 032 0 gusting 2 16.1
2020-May-26 06:00 032 0 gusting 2 16.1
2020-May-26 05:55 032 0 gusting 1 16.1
2020-May-26 05:50 032 1 gusting 2 16.1
2020-May-26 05:45 035 0 gusting 1 16.1
2020-May-26 05:40 035 1 gusting 2 16.1
2020-May-26 05:35 044 0 gusting 2 16.1
2020-May-26 05:30 044 0 gusting 2 16.1
2020-May-26 05:25 044 0 gusting 2 16.1
2020-May-26 05:20 048 0 gusting 2 16.7
2020-May-26 05:15 052 0 gusting 1 16.7
2020-May-26 05:10 048 0 gusting 4 16.7
2020-May-26 05:05 042 16.7
2020-May-26 05:00 042 16.7
2020-May-26 04:55 043 16.7
2020-May-26 04:50 043 0 gusting 1 17.2
2020-May-26 04:45 043 17.2
2020-May-26 04:40 043 0 gusting 1 17.2
2020-May-26 04:35 043 17.2
2020-May-26 04:30 043 17.2
2020-May-26 04:25 043 17.2
2020-May-26 04:20 043 17.2